Home > Weather > Santa Maria > Past weeks

Flag for Cabo Verde Past Weather in Santa Maria, Cabo Verde — Yesterday and Last 2 Weeks

Now
77 °F

Partly sunny.


Feels Like: 79 °F
Forecast: 76 / 84 °F
Wind: 5 mph from Northeast

Location: Sal

Current Time: Aug 27, 2016 at 7:33:24 AM

Latest Report: Aug 27, 2016 at 7:00 AM


Visibility: N/A

Pressure: 29.89 "Hg

Humidity: 74%

Dew Point: 68 °F

Location of Santa MariaLocation

Past Weather in Santa Maria — Graph

°F

Santa Maria Temperature Yesterday

Maximum temperature yesterday: 88 °F (at 1:00 PM)
Minimum temperature yesterday: 77 °F (at 2:00 AM)
Average temperature yesterday: 81 °F

High & Low Weather Summary for the Past Weeks

 TemperatureHumidityPressure
High91 °F (Aug 23, 12:00 PM)94% (Aug 22, 7:00 AM)30.04 "Hg (Aug 22, 7:00 AM)
Low73 °F (Aug 13, 6:00 AM)52% (Aug 12, 1:00 PM)29.77 "Hg (Aug 25, 4:00 PM)
Average82 °F73%29.92 "Hg
* Reported Aug 12 6:00 AM — Aug 27 6:00 AM, Santa Maria, Weather by CustomWeather, © 2016

Note: Actual official high and low records may vary slightly from our data, if they occured in-between our weather recording intervals... More about our weather records

Advertising

Santa Maria Weather History for the Previous 24 Hours

Scroll right to see more
 ConditionsComfort  
Time TempWeatherWind HumidityBarometerVisibility
6:00 AM
Sat, Aug 27
75 °FPartly sunny.3 mph78%29.89 "HgN/A
5:00 AM75 °FPassing clouds.6 mph78%29.89 "HgN/A
4:00 AM77 °FPassing clouds.7 mph74%29.86 "HgN/A
3:00 AM77 °FPassing clouds.6 mph74%29.86 "HgN/A
2:00 AM77 °FPassing clouds.5 mph74%29.86 "HgN/A
1:00 AM77 °FPassing clouds.5 mph79%29.86 "HgN/A
12:00 AM77 °FPassing clouds.3 mph79%29.89 "HgN/A
11:00 PM
Fri, Aug 26
77 °FPassing clouds.3 mph79%29.89 "HgN/A
10:00 PM79 °FPassing clouds.7 mph74%29.89 "HgN/A
9:00 PM79 °FPassing clouds.9 mph74%29.89 "HgN/A
8:00 PM79 °FPassing clouds.8 mph74%29.86 "HgN/A
7:00 PM79 °FPassing clouds.9 mph70%29.86 "HgN/A
6:00 PM82 °FPassing clouds.9 mph66%29.83 "HgN/A
5:00 PM84 °FPassing clouds.8 mph62%29.83 "HgN/A
4:00 PM86 °FPartly sunny.10 mph59%29.83 "HgN/A
3:00 PM86 °FPartly sunny.10 mph55%29.83 "HgN/A
2:00 PM88 °FPartly sunny.13 mph52%29.83 "HgN/A
1:00 PM88 °FPartly sunny.12 mph52%29.86 "HgN/A
12:00 PM86 °FPartly sunny.10 mph55%29.89 "HgN/A
11:00 AM86 °FPartly sunny.9 mph55%29.89 "HgN/A
10:00 AM86 °FPartly sunny.8 mph55%29.89 "HgN/A
9:00 AM82 °FPartly sunny.12 mph62%29.89 "HgN/A
8:00 AM79 °FPartly sunny.10 mph74%29.86 "HgN/A
7:00 AM77 °FScattered clouds.6 mph74%29.86 "HgN/A
Weather by CustomWeather, © 2016

See weather overviewHow to use our weather pages